FW0856 Weather Reports


Display with metric or nautical units.
time (UTC)temp
F
wind
direction
speed
MPH
gust
MPH
rain 1hr
in
rain 24hr
in
rain mn
in
humidity
%
barometer
mb
20181213175019 60 76 1.0 1.0 0.00 0.00 0.00 77 1016.2
20181213174022 59 65 0.0 2.0 0.00 0.00 0.00 77 1016.3
20181213173027 59 40 1.0 4.0 0.00 0.00 0.00 78 1016.4
20181213172031 58 45 1.0 2.0 0.00 0.00 0.00 78 1016.6
20181213171017 58 101 1.0 2.0 0.00 0.00 0.00 79 1016.8
20181213170022 58 77 2.0 4.0 0.00 0.00 0.00 78 1017.0
20181213165026 57 173 1.0 3.0 0.00 0.00 0.00 78 1017.2
20181213164024 57 45 2.0 2.0 0.00 0.00 0.00 80 1017.3
20181213163017 57 67 1.0 2.0 0.00 0.00 0.00 80 1017.3
20181213162021 56 106 2.0 3.0 0.00 0.00 0.00 80 1017.5
20181213161020 56 118 2.0 3.0 0.00 0.00 0.00 81 1017.6
20181213160017 56 35 1.0 2.0 0.00 0.00 0.00 81 1017.7
20181213155015 55 45 1.0 2.0 0.00 0.00 0.00 81 1017.8
20181213154020 55 340 1.0 2.0 0.00 0.00 0.00 81 1017.8
20181213153024 54 76 1.0 2.0 0.00 0.00 0.00 82 1017.8
20181213152029 54 38 2.0 3.0 0.00 0.00 0.00 82 1018.0
20181213151033 53 52 1.0 3.0 0.00 0.00 0.00 83 1018.0
20181213150019 53 84 1.0 2.0 0.00 0.00 0.00 82 1018.1
20181213145023 53 33 1.0 3.0 0.00 0.00 0.00 82 1018.1
20181213144028 52 115 2.0 3.0 0.00 0.00 0.00 82 1018.0
20181213143032 52 123 2.0 4.0 0.00 0.00 0.00 82 1017.8
20181213142018 51 83 2.0 2.0 0.00 0.00 0.00 82 1017.9
20181213141022 51 75 1.0 3.0 0.00 0.00 0.00 84 1017.5
20181213140027 51 71 1.0 2.0 0.00 0.00 0.00 86 1017.6
20181213135031 50 53 1.0 3.0 0.00 0.00 0.00 87 1017.5
20181213134017 50 67 1.0 2.0 0.00 0.00 0.00 87 1017.4
20181213133022 50 56 1.0 2.0 0.00 0.00 0.00 88 1017.2
20181213132026 50 64 2.0 4.0 0.00 0.00 0.00 88 1017.5
20181213131030 50 67 1.0 3.0 0.00 0.00 0.00 89 1017.6
20181213130016 50 157 1.0 3.0 0.00 0.00 0.00 91 1018.0
20181213125021 50 0.0 0.0 0.00 0.00 0.00 91 1017.8
20181213124025 50 124 1.0 2.0 0.00 0.00 0.00 91 1017.7
20181213123030 50 67 1.0 2.0 0.00 0.00 0.00 93 1018.1
20181213122015 50 105 1.0 3.0 0.00 0.00 0.00 94 1017.7
20181213121020 50 82 1.0 2.0 0.00 0.00 0.00 95 1017.6
20181213120024 50 67 1.0 4.0 0.00 0.00 0.00 96 1017.5
20181213115028 50 67 0.0 1.0 0.00 0.00 0.00 96 1017.5
20181213114032 50 67 0.0 2.0 0.00 0.00 0.00 96 1017.5
20181213113018 50 78 1.0 2.0 0.00 0.00 0.00 96 1017.5
20181213112022 50 67 1.0 2.0 0.00 0.00 0.00 96 1017.8
20181213111027 50 102 1.0 2.0 0.00 0.00 0.00 96 1017.5
20181213110025 50 78 1.0 2.0 0.00 0.00 0.00 96 1017.6
20181213105017 50 45 0.0 2.0 0.00 0.00 0.00 96 1017.7
20181213104021 50 43 1.0 3.0 0.00 0.00 0.00 96 1017.7
20181213103019 50 0.0 0.0 0.00 0.00 0.00 96 1017.6
20181213102018 50 0.0 0.0 0.00 0.00 0.00 97 1017.8
20181213101016 50 0.0 0.0 0.00 0.00 0.00 96 1017.8
20181213100032 50 0.0 0.0 0.00 0.00 0.00 96 1018.0
20181213095019 50 0.0 0.0 0.00 0.00 0.00 96 1018.0
20181213094023 50 45 0.0 1.0 0.00 0.00 0.00 96 1018.1
20181213093028 50 166 1.0 2.0 0.00 0.00 0.00 95 1018.1
20181213092032 50 165 1.0 3.0 0.00 0.00 0.00 94 1017.9
20181213091018 50 81 1.0 2.0 0.00 0.00 0.00 94 1017.8
20181213090023 50 90 1.0 3.0 0.00 0.00 0.00 94 1018.1
20181213085027 50 159 1.0 2.0 0.00 0.00 0.00 94 1018.4
20181213084025 50 236 2.0 4.0 0.00 0.00 0.00 94 1018.4
20181213083030 50 135 1.0 2.0 0.00 0.00 0.00 93 1018.3
20181213082016 50 106 1.0 2.0 0.00 0.00 0.00 93 1018.5
20181213081020 50 59 1.0 3.0 0.00 0.00 0.00 93 1018.5
20181213080025 50 76 1.0 2.0 0.00 0.00 0.00 92 1018.8
20181213075029 50 0.0 0.0 0.00 0.00 0.00 92 1018.9
20181213074016 50 87 0.0 2.0 0.00 0.00 0.00 92 1018.9
20181213073020 49 49 1.0 2.0 0.00 0.00 0.00 91 1018.9
20181213072024 49 85 0.0 2.0 0.00 0.00 0.00 91 1019.0
20181213071028 49 94 1.0 3.0 0.00 0.00 0.00 92 1019.0
20181213070033 49 101 2.0 3.0 0.00 0.00 0.00 91 1019.1
20181213065019 49 97 0.0 2.0 0.00 0.00 0.00 92 1019.1
20181213064024 49 138 2.0 4.0 0.00 0.00 0.00 92 1019.1
20181213063027 49 132 0.0 3.0 0.00 0.00 0.00 92 1019.1
20181213062033 48 17 0.0 2.0 0.00 0.00 0.00 92 1019.1
20181213061018 48 22 0.0 3.0 0.00 0.00 0.00 92 1019.2
20181213060023 48 0.0 0.0 0.00 0.00 0.00 92 1019.2
20181213055027 47 67 1.0 2.0 0.00 0.00 0.00 93 1019.3
20181213054033 47 229 0.0 2.0 0.00 0.00 0.00 93 1019.4
20181213053017 47 152 0.0 1.0 0.00 0.00 0.00 94 1019.6
20181213052021 47 135 0.0 1.0 0.00 0.00 0.00 93 1019.2
20181213051026 46 0.0 0.0 0.00 0.00 0.00 94 1019.2
20181213050024 46 0.0 0.0 0.00 0.00 0.00 94 1019.6
20181213045017 46 0.0 0.0 0.00 0.00 0.00 94 1019.7
20181213044021 46 0.0 0.0 0.00 0.00 0.00 95 1019.9
20181213043019 46 0.0 0.0 0.00 0.00 0.00 95 1020.0
20181213042017 46 0.0 0.0 0.00 0.00 0.00 93 1020.1
20181213041015 46 0.0 0.0 0.00 0.00 0.00 94 1019.7
20181213040020 46 0.0 0.0 0.00 0.00 0.00 93 1019.8
20181213035025 46 0.0 0.0 0.00 0.00 0.00 93 1020.0
20181213034029 45 0.0 0.0 0.00 0.00 0.00 94 1020.1
20181213033015 45 0.0 0.0 0.00 0.00 0.00 95 1020.1
20181213032019 46 0.0 0.0 0.00 0.00 0.00 95 1020.0
20181213031024 46 0.0 0.0 0.00 0.00 0.00 95 1020.0
20181213030028 46 0.0 0.0 0.00 0.00 0.00 95 1019.9
20181213025032 46 0.0 0.0 0.00 0.00 0.00 97 1020.0
20181213024018 46 0.0 0.0 0.00 0.00 0.00 97 1019.9
20181213023022 46 0.0 0.0 0.00 0.00 0.00 99 1019.4
20181213022027 46 0.0 0.0 0.00 0.00 0.00 99 1019.7
20181213021031 46 0.0 0.0 0.00 0.00 0.00 99 1019.7
20181213020017 46 0.0 0.0 0.00 0.00 0.00 99 1019.8
20181213015021 46 0.0 0.0 0.00 0.00 0.00 99 1019.9
20181213014026 46 0.0 0.0 0.00 0.00 0.00 99 1020.0
20181213013030 46 0.0 0.0 0.00 0.00 0.00 99 1020.3
20181213012018 47 0.0 0.0 0.00 0.00 0.00 99 1020.0
20181213011021 47 0.0 0.0 0.00 0.00 0.00 99 1020.1
20181213010025 47 0.0 0.0 0.00 0.00 0.00 99 1020.2
20181213005030 47 0.0 0.0 0.00 0.00 0.00 99 1020.2
20181213004016 47 0.0 0.0 0.00 0.00 0.00 99 1020.2
20181213003020 47 0.0 0.0 0.00 0.00 0.00 99 1020.4
20181213002025 48 0.0 0.0 0.00 0.00 0.00 98 1020.2
20181213001029 48 0.0 0.0 0.00 0.00 0.00 98 1019.9
20181213000015 49 0.0 0.0 0.00 0.00 0.00 98 1020.2
20181212235020 50 0.0 0.0 0.00 0.00 0.00 97 1020.1
20181212234024 50 0.0 0.0 0.00 0.00 0.00 97 1020.0
20181212233029 51 0.0 0.0 0.00 0.00 0.00 97 1020.4
20181212232026 51 0.0 0.0 0.00 0.00 0.00 95 1019.8
20181212231018 52 0.0 0.0 0.00 0.00 0.00 95 1019.7
20181212230023 53 0.0 0.0 0.00 0.00 0.00 91 1020.1
20181212225021 54 0.0 0.0 0.00 0.00 0.00 92 1020.2
20181212224019 55 0.0 0.0 0.00 0.00 0.00 88 1020.0
20181212223017 56 0.0 0.0 0.00 0.00 0.00 84 1019.7
20181212222016 57 0.0 0.0 0.00 0.00 0.00 83 1019.8
20181212221026 58 0.0 0.0 0.00 0.00 0.00 83 1020.0
20181212220030 59 45 0.0 1.0 0.00 0.00 0.00 79 1020.0
20181212215017 59 157 0.0 1.0 0.00 0.00 0.00 78 1020.0
20181212214021 59 138 0.0 1.0 0.00 0.00 0.00 76 1020.0
20181212213025 60 0.0 0.0 0.00 0.00 0.00 75 1019.9
20181212212029 59 170 2.0 5.0 0.00 0.00 0.00 75 1020.0
20181212211016 60 200 2.0 3.0 0.00 0.00 0.00 73 1020.1
20181212210019 59 147 3.0 5.0 0.00 0.00 0.00 74 1020.6
20181212205023 60 189 3.0 6.0 0.00 0.00 0.00 72 1020.6
20181212204028 60 170 3.0 5.0 0.00 0.00 0.00 70 1020.7
20181212203033 60 196 5.0 7.0 0.00 0.00 0.00 70 1021.1
20181212202018 60 221 5.0 7.0 0.00 0.00 0.00 70 1021.1
20181212201023 60 188 6.0 8.0 0.00 0.00 0.00 69 1020.9
20181212200027 60 199 4.0 8.0 0.00 0.00 0.00 69 1021.2
20181212195031 60 200 6.0 8.0 0.00 0.00 0.00 68 1021.1
20181212194017 60 189 5.0 7.0 0.00 0.00 0.00 69 1021.1
20181212193021 60 200 6.0 10.0 0.00 0.00 0.00 67 1021.5
20181212192025 60 198 5.0 8.0 0.00 0.00 0.00 67 1021.7
20181212191029 60 202 4.0 6.0 0.00 0.00 0.00 68 1021.6
20181212190016 60 170 2.0 5.0 0.00 0.00 0.00 68 1021.7
20181212185020 59 198 2.0 4.0 0.00 0.00 0.00 69 1021.8
20181212184024 59 204 4.0 6.0 0.00 0.00 0.00 68 1022.0
20181212183028 59 222 2.0 4.0 0.00 0.00 0.00 68 1022.2
20181212182033 59 226 5.0 6.0 0.00 0.00 0.00 65 1022.3
20181212181019 59 202 4.0 9.0 0.00 0.00 0.00 65 1022.4
20181212180023 59 208 3.0 5.0 0.00 0.00 0.00 65 1022.6